Location: Esp�s Alto
(42.4476°N, 0.5876°E)
Time: 06:46:18
(UTC+00:00)

ASTEX 1 - Pass Details

Date: 22 October 2019
Orbit: 722 x 742 km, 92.7° (Epoch: 12 November)

Event Time Altitude Azimuth Distance (km) Brightness Sun altitude
Rises 05:14:52 0° 159° (SSE) 3,120 7.0 -12.4°
Reaches altitude 10° 05:17:11 10° 155° (SSE) 2,204 6.3 -12.0°
Maximum altitude 05:21:54 52° 79° (E) 895 4.3 -11.1°
Drops below altitude 10° 05:26:39 10° 4° (N) 2,226 5.9 -10.2°
Sets 05:29:00 0° 360° (N) 3,154 6.6 -9.8°
